Theta_e
347 347 346 346 347 347 347 347 347 347 347 349 350 351 351 350 352 355 356 356 356 356 356 355 354 354 354 354 354 354 353 352 351 349 347 345 344 346 345 345 345 345
347 347 346 347 346 345 345 345 345 346 345 346 348 350 350 350 351 354 355 356 356 356 357 356 354 353 354 354 354 354 354 353 352 352 349 345 344 346 345 345 345 345
347 347 347 347 346 346 345 344 344 345 344 345 347 348 349 350 351 353 354 356 357 356 357 357 355 352 353 353 354 354 354 354 354 354 351 346 344 346 345 345 345 345
346 346 346 346 346 347 346 345 343 343 343 345 345 346 347 348 350 351 353 355 356 356 356 357 356 353 352 353 354 354 354 354 354 355 354 350 346 345 344 345 345 345
346 345 345 345 345 346 346 345 343 342 342 344 345 345 345 347 348 349 351 353 355 356 356 358 357 354 352 353 354 354 354 354 354 355 355 354 351 347 345 345 344 345
348 346 344 344 344 345 345 345 344 342 341 343 344 344 343 345 346 348 350 351 354 355 356 358 358 355 353 354 354 353 353 353 354 355 355 355 354 353 351 349 347 345
349 348 346 345 345 345 345 344 344 342 340 341 343 342 342 344 346 347 349 350 352 354 355 357 359 357 355 354 354 354 353 353 353 355 355 355 355 356 356 355 351 348
349 349 348 347 346 346 346 345 345 344 341 341 342 342 341 344 346 347 348 349 350 352 354 356 358 358 357 355 354 354 354 353 354 354 355 356 356 356 356 356 355 352
350 349 348 348 347 346 345 345 345 345 343 342 341 341 341 343 345 347 348 349 349 351 353 354 356 357 358 357 355 354 354 354 354 355 355 355 356 356 355 356 357 355
350 350 349 349 347 347 345 345 345 345 346 344 342 341 340 340 343 347 348 349 350 351 351 353 355 355 356 357 356 354 354 354 355 355 355 355 355 356 356 355 356 357
351 350 350 350 348 348 346 345 345 345 346 347 345 343 341 339 341 344 348 350 350 349 348 350 352 353 355 356 356 355 355 354 355 355 356 355 354 354 356 354 354 356
351 351 351 351 349 349 348 347 346 345 345 346 346 345 344 341 341 343 346 348 348 347 345 345 348 352 354 355 356 356 355 355 355 356 356 356 354 353 354 353 352 354
352 352 351 351 350 350 349 348 347 346 345 346 346 347 346 345 344 343 344 346 346 345 344 343 346 349 352 354 356 357 356 355 356 356 356 357 356 355 354 352 349 351
353 352 352 351 351 351 350 349 348 347 346 346 346 347 348 347 347 346 345 345 345 345 344 344 346 349 351 353 355 356 356 356 356 356 356 356 356 356 356 354 351 351
353 353 353 352 352 351 351 350 349 348 347 346 346 346 347 347 348 348 347 347 346 346 346 346 348 350 351 352 354 355 356 356 356 356 356 356 356 356 357 356 355 354
353 353 353 353 352 352 351 351 350 349 348 347 346 346 346 346 347 348 349 348 348 347 347 348 349 350 351 352 353 354 355 356 357 357 356 357 357 356 357 356 355 355
354 354 354 353 353 352 352 352 351 350 349 348 347 346 346 345 346 347 348 349 348 348 348 349 349 350 351 352 352 353 354 355 356 357 357 357 357 357 357 357 356 355
356 355 355 355 354 353 353 352 352 351 350 349 348 347 347 346 346 346 347 348 349 349 349 349 349 349 350 351 352 353 354 355 356 357 357 357 357 357 357 356 356 356
357 357 357 356 355 355 354 353 352 352 351 350 349 349 348 347 347 346 346 347 348 349 349 349 349 349 350 351 352 353 354 355 356 356 356 357 357 357 357 356 356 356
358 358 358 357 357 356 355 355 354 353 352 352 351 350 349 348 348 347 347 348 348 348 349 349 349 349 349 350 351 352 353 354 355 356 356 356 356 356 357 357 357 357
360 359 359 358 358 357 357 356 355 354 353 353 352 352 351 350 349 349 348 348 348 348 349 349 349 349 350 350 351 351 353 354 355 355 356 356 356 356 357 357 357 357
360 360 360 360 359 359 358 357 356 356 355 354 354 353 352 351 351 350 350 349 349 349 349 349 349 349 349 350 350 351 352 354 355 356 356 356 356 356 356 357 357 357
362 361 361 361 360 360 359 359 358 357 357 355 355 354 353 353 352 352 351 351 351 350 350 350 350 350 350 351 350 351 352 353 355 355 355 356 355 356 356 356 356 356
363 363 362 362 361 361 360 360 359 359 358 357 356 356 355 354 353 353 352 352 352 351 351 351 351 351 351 351 351 351 352 353 354 354 355 355 355 356 356 356 356 356
361 363 363 363 363 362 362 361 361 360 360 359 357 357 356 355 354 354 353 353 353 352 352 352 352 351 351 352 352 352 353 353 353 353 354 354 354 355 355 355 356 356
359 361 363 364 363 363 363 362 362 361 360 359 358 357 357 356 355 355 354 354 353 353 353 352 352 352 352 352 352 353 353 353 353 353 353 353 354 354 354 355 355 355
Wind_Speed
38 38 37 35 35 34 33 32 30 29 29 28 28 26 25 24 24 24 23 21 20 20 18 17 18 17 15 14 13 12 12 12 13 15 15 16 15 13 12 10 9 9
38 38 37 36 35 34 34 33 32 31 30 30 29 27 25 24 24 24 23 22 21 21 20 18 18 18 17 15 14 13 13 13 13 13 14 17 17 15 14 13 11 10
38 38 38 37 36 35 34 33 32 31 31 30 30 28 27 25 24 24 24 23 22 22 21 19 18 19 18 16 15 14 14 15 14 13 14 16 18 17 16 15 14 13
38 38 38 38 38 36 34 33 32 32 31 31 31 30 28 26 25 25 24 24 23 22 22 20 19 20 20 18 17 16 15 16 14 13 14 15 17 18 18 17 17 16
40 39 38 38 38 36 34 33 33 32 31 31 31 30 29 28 27 26 25 25 25 23 22 21 20 20 21 21 19 18 17 17 15 15 15 14 14 16 17 18 19 18
39 39 38 38 37 36 35 35 35 34 33 31 30 29 29 29 29 29 27 26 26 25 24 23 22 22 22 22 21 21 20 19 17 16 16 15 14 13 14 15 17 19
39 39 38 37 36 36 36 36 35 35 35 34 31 29 29 29 30 30 29 28 27 26 26 25 24 24 23 23 23 23 22 21 19 18 17 17 16 15 14 14 16 18
39 39 38 37 36 36 36 36 36 36 36 35 34 33 30 29 30 31 31 30 29 28 27 26 26 26 25 25 25 25 24 23 22 21 20 19 19 18 17 16 16 18
38 38 38 37 37 36 36 37 37 37 36 35 35 35 33 31 31 31 32 31 30 29 28 27 27 27 27 27 28 27 26 26 24 23 23 22 22 21 19 18 18 19
38 37 37 37 38 38 38 38 38 37 36 36 35 34 34 33 32 32 32 32 32 31 30 29 29 28 29 29 29 30 29 28 27 26 26 25 25 24 22 21 21 21
37 37 37 37 38 38 38 39 38 37 37 37 36 35 34 34 34 34 34 34 34 33 32 31 31 30 31 31 31 31 31 31 30 29 28 27 27 27 26 25 24 23
37 36 37 37 38 39 38 38 38 37 37 37 37 36 35 35 35 35 35 36 36 35 34 33 33 32 32 32 32 32 31 31 31 31 30 29 28 29 29 28 28 27
36 37 37 37 38 39 38 38 38 37 37 37 36 36 36 35 35 36 36 37 37 36 36 35 34 33 33 33 33 32 32 32 31 31 31 30 29 29 29 29 29 29
37 37 37 37 38 38 38 38 37 37 37 37 36 35 36 36 36 36 36 37 37 37 37 36 35 34 34 33 33 33 32 32 32 31 31 30 30 30 30 29 30 30
37 37 37 37 36 36 37 38 38 37 37 37 36 36 36 36 36 36 36 35 36 37 37 36 35 35 35 35 34 33 33 33 32 32 31 31 31 31 31 30 30 30
37 37 36 37 37 36 37 37 37 37 36 36 36 36 36 36 35 35 35 35 35 36 36 36 36 36 36 36 36 35 34 33 33 33 32 32 32 31 31 31 31 32
36 36 36 37 37 37 37 37 37 36 36 36 36 36 37 36 35 35 35 35 35 35 36 36 37 37 37 37 36 36 35 34 33 33 32 32 32 32 32 33 33 33
35 35 35 36 37 37 37 37 37 36 36 35 35 36 36 36 36 36 36 36 35 35 35 37 38 39 38 38 37 37 36 35 34 33 32 32 32 32 33 33 33 33
36 36 35 36 37 37 37 37 37 36 36 36 36 35 35 35 36 37 37 36 36 35 36 37 38 39 39 39 39 38 38 37 35 34 33 33 33 33 34 34 34 33
36 36 36 36 37 37 37 37 36 36 36 36 35 35 35 35 36 37 37 37 37 36 36 37 38 39 39 39 39 39 39 38 37 36 34 34 34 34 34 34 34 33
35 35 35 36 36 36 36 36 36 36 36 36 35 35 35 36 36 36 37 37 37 36 36 37 38 39 39 39 40 40 39 38 38 37 36 35 35 35 35 35 35 35
34 34 35 35 35 35 35 35 35 36 36 36 35 35 35 35 35 35 36 36 36 36 36 37 38 39 38 39 40 39 39 38 38 38 37 36 36 36 36 36 37 36
29 31 32 34 34 34 35 35 36 36 37 36 35 35 35 35 35 35 35 35 35 36 36 37 38 39 39 39 39 39 38 38 38 38 38 38 38 37 37 37 38 38
26 29 31 33 34 35 35 35 36 36 37 37 36 36 36 36 36 35 35 35 36 37 37 38 39 39 39 39 39 39 38 39 39 39 38 38 38 38 38 38 39 39
21 28 32 34 35 36 36 36 36 37 37 37 37 36 36 36 35 35 35 36 36 37 37 38 39 40 39 39 40 39 39 39 39 38 38 38 38 38 38 39 39 39
16 23 31 35 35 36 36 36 36 36 36 35 35 35 35 35 35 35 35 35 36 36 37 38 40 40 40 40 41 40 40 40 39 38 38 38 38 37 37 37 38 39
Wind_Direction
211 212 213 215 216 218 219 218 219 222 224 224 223 222 221 219 217 217 219 221 222 224 224 223 221 218 218 220 225 230 230 227 224 226 230 230 227 227 231 235 240 246
211 212 213 214 216 219 221 221 222 224 227 227 226 226 225 222 221 221 221 223 226 227 227 229 226 221 219 220 226 234 233 230 227 227 230 228 224 225 230 235 239 248
212 213 213 214 216 218 221 223 224 226 228 228 227 228 228 225 224 224 225 225 228 230 230 234 233 227 223 224 229 235 233 229 227 227 229 227 225 226 230 236 242 248
213 214 215 215 216 218 221 224 225 225 227 228 229 230 230 228 227 227 227 228 230 232 233 236 238 233 229 229 233 235 232 230 229 229 231 230 230 230 231 235 242 246
214 216 216 217 218 219 221 224 226 225 225 227 230 232 232 231 230 229 229 230 231 234 236 237 238 235 230 231 235 236 233 231 231 231 233 233 230 232 233 235 240 244
213 215 217 218 219 219 220 223 227 227 226 227 229 232 233 233 233 231 231 231 231 233 235 237 237 234 231 233 236 238 236 235 233 232 233 233 229 230 235 238 240 241
212 214 215 217 218 219 220 222 225 227 227 228 229 231 233 233 233 232 232 232 232 232 233 235 236 234 232 234 237 239 239 238 236 233 233 233 232 233 237 241 241 238
212 213 214 216 217 219 220 221 223 225 227 228 229 231 232 233 232 232 232 233 233 234 234 234 235 236 234 235 237 239 240 240 238 235 235 236 236 236 236 240 243 241
211 212 213 214 216 218 220 221 221 223 225 228 229 231 231 232 232 232 232 233 234 236 236 236 236 237 236 236 237 238 240 241 239 238 238 239 240 239 237 239 242 244
210 211 212 213 215 217 220 221 222 222 224 227 229 231 231 232 232 232 232 233 235 237 239 238 238 237 238 238 238 239 240 241 241 240 241 242 243 243 242 241 242 244
211 211 212 213 215 217 219 221 222 222 224 226 228 230 232 233 233 232 232 232 235 238 241 241 240 239 238 239 240 239 240 242 243 242 243 245 245 245 245 245 244 245
211 211 212 214 215 217 219 221 221 222 223 225 227 229 231 233 233 233 232 233 235 238 241 243 243 241 240 240 240 240 240 242 243 244 246 248 248 246 246 247 247 247
211 212 214 215 216 218 219 221 222 222 223 224 226 228 229 230 232 233 233 234 236 238 240 242 243 242 241 241 240 240 240 242 244 245 247 249 249 248 247 248 248 248
213 214 215 217 218 219 220 221 222 223 223 224 224 226 227 229 230 232 234 235 236 238 239 240 240 240 240 240 239 239 239 241 243 245 247 249 249 249 249 248 248 248
213 214 216 218 219 220 220 221 222 223 224 224 224 225 227 228 230 232 234 235 236 237 238 239 239 238 239 239 238 238 237 239 242 244 246 248 249 250 251 251 250 249
213 214 216 217 218 220 221 222 223 224 224 225 225 226 227 228 230 231 232 234 235 236 237 237 238 238 238 238 238 238 238 238 239 241 244 246 247 249 251 252 253 252
213 214 215 216 218 219 220 222 223 224 225 226 226 227 228 229 229 230 231 233 234 235 236 236 238 238 239 239 239 239 238 237 238 240 242 243 245 246 249 252 253 254
213 214 215 216 218 219 220 221 222 223 224 225 226 228 228 228 229 230 231 231 232 234 235 236 238 240 239 239 239 239 238 237 237 239 240 242 244 245 247 250 252 254
212 213 214 216 218 219 220 221 221 222 222 224 226 227 228 228 229 230 231 231 231 232 234 236 238 240 240 240 240 240 239 238 236 237 239 241 243 245 247 249 250 252
212 213 213 216 218 219 220 220 221 221 222 223 225 226 227 228 229 229 230 231 231 231 233 236 238 240 240 240 241 241 240 238 237 236 238 240 243 245 247 248 250 251
211 212 213 216 218 218 219 220 221 222 222 223 223 224 226 228 229 230 230 231 231 231 232 235 238 239 240 241 241 241 241 239 237 236 236 239 242 244 246 248 250 251
212 212 213 215 217 218 219 220 221 222 222 222 223 224 226 227 228 230 230 231 231 231 232 235 238 239 240 241 242 242 240 239 237 236 235 237 240 243 245 247 249 250
217 215 215 215 216 217 218 219 220 222 223 222 221 222 224 225 227 229 230 231 231 231 231 233 237 239 240 240 241 241 239 237 236 235 235 236 238 241 243 246 248 249
225 220 218 217 218 218 219 220 220 221 223 222 221 221 222 224 226 228 229 230 231 231 232 233 236 238 239 240 241 240 238 237 235 234 234 236 238 240 242 244 247 249
239 230 223 221 221 221 220 221 221 222 223 223 222 222 223 223 224 226 228 229 230 232 232 233 236 238 238 239 240 239 238 236 234 232 233 235 237 239 241 243 245 247
262 243 230 225 224 223 222 222 222 222 222 222 222 223 223 224 223 224 227 229 229 231 232 233 235 237 238 238 239 238 237 236 232 229 231 235 237 238 240 242 244 245